EDT,Max TemperatureF,Mean TemperatureF,Min TemperatureF,Max Dew PointF,MeanDew PointF,Min DewpointF,Max Humidity, Mean Humidity, Min Humidity, Max Sea Level PressureIn, Mean Sea Level PressureIn, Min Sea Level PressureIn, Max VisibilityMiles, Mean VisibilityMiles, Min VisibilityMiles, Max Wind SpeedMPH, Mean Wind SpeedMPH, Max Gust SpeedMPH,PrecipitationIn, CloudCover, Events, WindDirDegrees
2012-3-1,65,52,38,29,27,25,57,43,28,29.90,29.84,29.80,10,10,10,26,10,44,0.00,0,,268
2012-3-2,52,45,38,49,40,26,89,67,45,29.90,29.74,29.60,10,7,2,21,12,29,0.87,5,Rain,140
2012-3-3,53,45,36,52,31,12,96,63,29,29.81,29.72,29.61,10,9,1,22,8,29,0.20,4,Rain,292
2012-3-4,37,32,27,25,21,14,78,63,48,29.98,29.83,29.73,10,8,2,23,10,32,T,7,Snow,290
2012-3-5,32,27,21,28,23,18,92,75,58,30.53,30.11,29.74,10,3,0,18,10,29,0.32,7,Fog-Snow,294
2012-3-6,54,34,14,25,19,14,84,57,29,30.62,30.53,30.43,10,10,9,16,8,25,0.00,0,,150
2012-3-7,66,53,40,37,28,18,54,42,29,30.53,30.42,30.32,10,10,10,18,10,28,0.00,0,,170
2012-3-8,66,57,47,49,44,37,89,66,43,30.34,30.18,30.10,10,9,3,23,10,36,0.25,5,Rain,217
2012-3-9,50,41,31,46,28,17,92,63,34,30.44,30.27,30.16,10,10,4,23,12,30,0.08,4,Rain,322
2012-3-10,53,39,25,18,15,9,74,47,19,30.54,30.48,30.43,10,10,10,12,4,16,0.00,0,,360
2012-3-11,68,54,39,27,23,17,40,30,20,30.51,30.40,30.32,10,10,10,15,7,18,0.00,0,,155
2012-3-12,62,54,46,51,39,27,80,60,39,30.32,30.24,30.17,10,10,9,13,7,17,0.12,5,Rain,156
2012-3-13,73,62,51,54,49,42,86,61,35,30.21,30.14,30.06,10,10,10,18,8,26,0.00,3,,252
2012-3-14,75,61,47,50,44,39,86,58,29,30.27,30.21,30.15,10,8,0,13,4,16,0.00,1,Fog,213
2012-3-15,62,57,51,52,48,40,93,72,51,30.38,30.26,30.16,10,8,2,15,5,22,0.59,4,Rain,190
2012-3-16,68,59,49,52,50,48,96,76,56,30.25,30.20,30.14,10,9,2,13,4,18,T,4,Rain,224
2012-3-17,69,62,54,55,51,50,93,73,53,30.28,30.21,30.17,10,10,7,17,5,22,0.12,6,Rain,154
2012-3-18,71,63,55,55,52,50,93,72,51,30.33,30.24,30.15,10,10,10,14,7,21,0.02,4,Rain,182
2012-3-19,79,68,57,53,50,45,80,56,31,30.23,30.15,30.07,10,10,10,15,5,18,0.00,4,,190
2012-3-20,82,69,55,52,49,45,83,56,28,30.27,30.14,30.06,10,10,10,20,4,24,0.00,1,,127
2012-3-21,77,67,57,57,53,50,78,61,43,30.26,30.18,30.13,10,10,6,16,6,22,0.08,2,Rain,148
2012-3-22,78,67,56,54,50,47,80,57,33,30.22,30.14,30.07,10,10,10,12,4,14,0.00,2,,160
2012-3-23,79,67,55,56,52,48,80,58,35,30.09,30.00,29.90,10,10,10,20,6,25,0.05,3,Rain,175
2012-3-24,65,59,53,55,51,45,93,80,67,29.96,29.85,29.77,10,8,2,16,8,21,0.47,7,Rain,128
2012-3-25,58,55,51,54,50,46,96,87,77,29.94,29.84,29.77,10,6,0,16,7,21,0.42,8,Fog-Rain,325
2012-3-26,60,49,37,48,40,13,86,52,17,30.21,30.05,29.94,10,9,6,22,10,31,0.00,5,,336
2012-3-27,68,48,27,28,20,12,75,44,12,30.32,30.23,30.12,10,10,10,12,5,17,0.00,0,,195
2012-3-28,77,65,52,54,44,29,78,56,33,30.10,29.95,29.80,10,9,2,31,12,41,0.10,2,Rain,263
2012-3-29,67,57,46,49,37,32,64,47,29,30.00,29.94,29.86,10,10,10,21,9,28,0.00,0,,321
2012-3-30,76,60,44,51,42,34,70,54,38,29.99,29.89,29.79,10,10,10,21,7,28,T,3,,165
2012-3-31,65,55,44,52,47,39,83,70,56,29.90,29.83,29.75,10,10,8,16,8,24,0.01,5,,309